Time,TemperatureF,DewpointF,PressureIn,WindDirection,WindDirectionDegrees,WindSpeedMPH,WindSpeedGustMPH,Humidity,HourlyPrecipIn,Conditions,Clouds,dailyrainin,SoftwareType,DateUTC
2013-04-08 00:03:00,67.0,62.0,30.13,East,81,1.0,-999.0,84,-99.99,,,-99.99,,2013-04-08 10:03:00,
2013-04-08 00:12:00,67.0,62.0,30.13,East,81,1.0,-999.0,84,-99.99,,,-99.99,,2013-04-08 10:12:00,
2013-04-08 00:22:00,67.0,62.0,30.13,East,90,1.0,-999.0,85,-99.99,,,-99.99,,2013-04-08 10:22:00,
2013-04-08 00:32:00,67.0,62.0,30.12,ESE,111,1.0,-999.0,85,-99.99,,,-99.99,,2013-04-08 10:32:00,
2013-04-08 00:42:00,67.0,62.0,30.12,ESE,111,1.0,-999.0,85,-99.99,,,-99.99,,2013-04-08 10:42:00,
2013-04-08 00:52:00,67.0,63.0,30.12,ESE,119,2.0,-999.0,86,-99.99,,,-99.99,,2013-04-08 10:52:00,
2013-04-08 01:02:00,67.0,62.0,30.11,ENE,63,1.0,-999.0,85,-99.99,,,-99.99,,2013-04-08 11:02:00,
2013-04-08 01:12:00,67.0,62.0,30.11,ESE,106,1.0,-999.0,85,-99.99,,,-99.99,,2013-04-08 11:12:00,
2013-04-08 01:22:00,67.0,62.0,30.11,ESE,106,1.0,-999.0,85,-99.99,,,-99.99,,2013-04-08 11:22:00,
2013-04-08 01:32:00,67.0,63.0,30.11,East,88,1.0,-999.0,86,-99.99,,,-99.99,,2013-04-08 11:32:00,
2013-04-08 01:42:00,67.0,63.0,30.11,East,88,1.0,-999.0,86,-99.99,,,-99.99,,2013-04-08 11:42:00,
2013-04-08 01:52:00,66.0,62.0,30.10,East,86,2.0,-999.0,86,-99.99,,,-99.99,,2013-04-08 11:52:00,
2013-04-08 02:02:00,66.0,62.0,30.10,ESE,109,1.0,-999.0,87,-99.99,,,-99.99,,2013-04-08 12:02:00,
2013-04-08 02:11:00,66.0,62.0,30.10,ESE,109,1.0,-999.0,87,-99.99,,,-99.99,,2013-04-08 12:11:00,
2013-04-08 02:22:00,66.0,62.0,30.09,East,96,1.0,-999.0,87,-99.99,,,-99.99,,2013-04-08 12:22:00,
2013-04-08 02:32:00,65.0,61.0,30.09,East,89,0.0,-999.0,87,-99.99,,,-99.99,,2013-04-08 12:32:00,
2013-04-08 02:42:00,65.0,61.0,30.09,East,89,0.0,-999.0,87,-99.99,,,-99.99,,2013-04-08 12:42:00,
2013-04-08 02:52:00,64.0,61.0,30.09,East,89,0.0,-999.0,89,-99.99,,,-99.99,,2013-04-08 12:52:00,
2013-04-08 03:02:00,64.0,61.0,30.08,ENE,67,1.0,-999.0,90,-99.99,,,-99.99,,2013-04-08 13:02:00,
2013-04-08 03:12:00,64.0,61.0,30.08,ENE,67,1.0,-999.0,90,-99.99,,,-99.99,,2013-04-08 13:12:00,
2013-04-08 03:22:00,64.0,61.0,30.08,NE,54,3.0,-999.0,89,-99.99,,,-99.99,,2013-04-08 13:22:00,
2013-04-08 03:32:00,65.0,61.0,30.06,ENE,58,3.0,-999.0,88,-99.99,,,-99.99,,2013-04-08 13:32:00,
2013-04-08 03:42:00,65.0,61.0,30.06,ENE,58,3.0,-999.0,88,-99.99,,,-99.99,,2013-04-08 13:42:00,
2013-04-08 03:52:00,65.0,61.0,30.06,NE,36,2.0,-999.0,86,-99.99,,,-99.99,,2013-04-08 13:52:00,
2013-04-08 04:02:00,66.0,61.0,30.06,NNE,24,3.0,-999.0,84,-99.99,,,-99.99,,2013-04-08 14:02:00,
2013-04-08 04:12:00,66.0,61.0,30.06,NNE,24,3.0,-999.0,84,-99.99,,,-99.99,,2013-04-08 14:12:00,
2013-04-08 04:22:00,67.0,61.0,30.06,NE,44,3.0,-999.0,82,-99.99,,,-99.99,,2013-04-08 14:22:00,
2013-04-08 04:32:00,67.0,61.0,30.06,NE,42,3.0,-999.0,82,-99.99,,,-99.99,,2013-04-08 14:32:00,
2013-04-08 04:41:00,66.0,60.0,30.06,NE,44,1.0,-999.0,81,-99.99,,,-99.99,,2013-04-08 14:41:00,
2013-04-08 04:52:00,66.0,60.0,30.06,NE,44,1.0,-999.0,81,-99.99,,,-99.99,,2013-04-08 14:52:00,
2013-04-08 05:02:00,65.0,60.0,30.07,NE,44,1.0,-999.0,84,-99.99,,,-99.99,,2013-04-08 15:02:00,
2013-04-08 05:11:00,66.0,60.0,30.07,ENE,75,3.0,-999.0,82,-99.99,,,-99.99,,2013-04-08 15:11:00,
2013-04-08 05:22:00,66.0,60.0,30.07,ENE,75,3.0,-999.0,82,-99.99,,,-99.99,,2013-04-08 15:22:00,
2013-04-08 05:33:00,66.0,60.0,30.07,ENE,65,3.0,-999.0,80,-99.99,,,-99.99,,2013-04-08 15:33:00,
2013-04-08 05:42:00,66.0,60.0,30.07,ENE,65,3.0,-999.0,80,-99.99,,,-99.99,,2013-04-08 15:42:00,
2013-04-08 05:52:00,67.0,61.0,30.08,NE,47,2.0,-999.0,81,-99.99,,,-99.99,,2013-04-08 15:52:00,
2013-04-08 06:03:00,67.0,61.0,30.08,NE,40,2.0,-999.0,81,-99.99,,,-99.99,,2013-04-08 16:03:00,
2013-04-08 06:12:00,67.0,61.0,30.08,NE,40,2.0,-999.0,81,-99.99,,,-99.99,,2013-04-08 16:12:00,
2013-04-08 06:22:00,67.0,61.0,30.08,ENE,67,1.0,-999.0,82,-99.99,,,-99.99,,2013-04-08 16:22:00,
2013-04-08 06:32:00,67.0,61.0,30.08,ENE,67,1.0,-999.0,82,-99.99,,,-99.99,,2013-04-08 16:32:00,
2013-04-08 06:42:00,66.0,60.0,30.09,ENE,74,1.0,-999.0,81,-99.99,,,-99.99,,2013-04-08 16:42:00,
2013-04-08 06:52:00,66.0,61.0,30.09,ENE,74,1.0,-999.0,83,-99.99,,,-99.99,,2013-04-08 16:52:00,
2013-04-08 07:02:00,65.0,60.0,30.10,ENE,59,0.0,-999.0,84,-99.99,,,-99.99,,2013-04-08 17:02:00,
2013-04-08 07:11:00,65.0,61.0,30.10,ENE,59,0.0,-999.0,86,-99.99,,,-99.99,,2013-04-08 17:11:00,
2013-04-08 07:22:00,65.0,61.0,30.10,ENE,59,0.0,-999.0,86,-99.99,,,-99.99,,2013-04-08 17:22:00,
2013-04-08 07:32:00,65.0,61.0,30.10,ENE,59,0.0,-999.0,87,-99.99,,,-99.99,,2013-04-08 17:32:00,
2013-04-08 07:42:00,65.0,61.0,30.10,ENE,59,0.0,-999.0,87,-99.99,,,-99.99,,2013-04-08 17:42:00,
2013-04-08 07:52:00,66.0,62.0,30.11,ENE,59,0.0,-999.0,86,-99.99,,,-99.99,,2013-04-08 17:52:00,
2013-04-08 08:02:00,67.0,62.0,30.11,ENE,59,0.0,-999.0,84,-99.99,,,-99.99,,2013-04-08 18:02:00,
2013-04-08 08:11:00,67.0,62.0,30.11,ENE,59,0.0,-999.0,84,-99.99,,,-99.99,,2013-04-08 18:11:00,
2013-04-08 08:22:00,70.0,65.0,30.11,ENE,59,0.0,-999.0,84,-99.99,,,-99.99,,2013-04-08 18:22:00,
2013-04-08 08:32:00,71.0,65.0,30.11,ENE,70,0.0,-999.0,82,-99.99,,,-99.99,,2013-04-08 18:32:00,
2013-04-08 08:42:00,72.0,65.0,30.11,ESE,109,0.0,-999.0,80,-99.99,,,-99.99,,2013-04-08 18:42:00,
2013-04-08 08:52:00,72.0,65.0,30.11,ESE,109,0.0,-999.0,80,-99.99,,,-99.99,,2013-04-08 18:52:00,
2013-04-08 09:02:00,72.0,65.0,30.11,SW,236,1.0,-999.0,80,-99.99,,,-99.99,,2013-04-08 19:02:00,
2013-04-08 09:12:00,72.0,65.0,30.11,SW,236,1.0,-999.0,80,-99.99,,,-99.99,,2013-04-08 19:12:00,
2013-04-08 09:22:00,73.0,65.0,30.11,WSW,237,0.0,-999.0,77,-99.99,,,-99.99,,2013-04-08 19:22:00,
2013-04-08 09:33:00,73.0,66.0,30.12,WSW,238,1.0,-999.0,78,-99.99,,,-99.99,,2013-04-08 19:33:00,
2013-04-08 09:42:00,72.0,65.0,30.11,WSW,251,2.0,-999.0,79,-99.99,,,-99.99,,2013-04-08 19:42:00,
2013-04-08 09:52:00,72.0,65.0,30.11,WSW,251,2.0,-999.0,79,-99.99,,,-99.99,,2013-04-08 19:52:00,
2013-04-08 10:02:00,73.0,66.0,30.11,SSW,199,2.0,-999.0,79,-99.99,,,-99.99,,2013-04-08 20:02:00,
2013-04-08 10:12:00,73.0,65.0,30.11,WSW,237,3.0,-999.0,77,-99.99,,,-99.99,,2013-04-08 20:12:00,
2013-04-08 10:22:00,73.0,65.0,30.11,WSW,237,3.0,-999.0,77,-99.99,,,-99.99,,2013-04-08 20:22:00,
2013-04-08 10:32:00,73.0,65.0,30.11,WNW,296,4.0,-999.0,77,-99.99,,,-99.99,,2013-04-08 20:32:00,
2013-04-08 10:52:00,73.0,65.0,30.11,SW,222,3.0,-999.0,76,-99.99,,,-99.99,,2013-04-08 20:52:00,
2013-04-08 11:01:00,74.0,65.0,30.11,SW,219,4.0,-999.0,74,-99.99,,,-99.99,,2013-04-08 21:01:00,
2013-04-08 11:12:00,74.0,66.0,30.11,SSW,209,4.0,-999.0,75,-99.99,,,-99.99,,2013-04-08 21:12:00,
2013-04-08 11:22:00,74.0,66.0,30.11,SSW,209,4.0,-999.0,75,-99.99,,,-99.99,,2013-04-08 21:22:00,
2013-04-08 11:32:00,74.0,66.0,30.10,West,276,4.0,-999.0,75,-99.99,,,-99.99,,2013-04-08 21:32:00,
2013-04-08 11:42:00,74.0,66.0,30.10,West,276,4.0,-999.0,75,-99.99,,,-99.99,,2013-04-08 21:42:00,
2013-04-08 11:52:00,73.0,66.0,30.10,WNW,295,5.0,-999.0,78,-99.99,,,-99.99,,2013-04-08 21:52:00,
2013-04-08 12:02:00,73.0,65.0,30.10,West,269,3.0,-999.0,77,-99.99,,,-99.99,,2013-04-08 22:02:00,
2013-04-08 12:12:00,73.0,65.0,30.10,West,269,3.0,-999.0,77,-99.99,,,-99.99,,2013-04-08 22:12:00,
2013-04-08 12:22:00,73.0,65.0,30.10,WSW,237,3.0,-999.0,77,-99.99,,,-99.99,,2013-04-08 22:22:00,
2013-04-08 12:32:00,73.0,65.0,30.10,WSW,237,3.0,-999.0,77,-99.99,,,-99.99,,2013-04-08 22:32:00,
2013-04-08 12:42:00,73.0,65.0,30.09,SW,233,3.0,-999.0,77,-99.99,,,-99.99,,2013-04-08 22:42:00,
2013-04-08 12:52:00,73.0,65.0,30.09,West,265,3.0,-999.0,77,-99.99,,,-99.99,,2013-04-08 22:52:00,
2013-04-08 13:02:00,72.0,65.0,30.08,WSW,244,4.0,-999.0,80,-99.99,,,-99.99,,2013-04-08 23:02:00,
2013-04-08 13:11:00,72.0,65.0,30.08,WSW,244,4.0,-999.0,80,-99.99,,,-99.99,,2013-04-08 23:11:00,
2013-04-08 13:22:00,72.0,65.0,30.08,WSW,244,4.0,-999.0,80,-99.99,,,-99.99,,2013-04-08 23:22:00,
2013-04-08 13:32:00,72.0,67.0,30.07,West,266,2.0,-999.0,84,-99.99,,,-99.99,,2013-04-08 23:32:00,
2013-04-08 13:41:00,72.0,67.0,30.07,West,266,2.0,-999.0,84,-99.99,,,-99.99,,2013-04-08 23:41:00,
2013-04-08 13:52:00,71.0,65.0,30.06,WSW,250,2.0,-999.0,82,-99.99,,,-99.99,,2013-04-08 23:52:00,
2013-04-08 14:02:00,71.0,66.0,30.06,West,262,3.0,-999.0,83,-99.99,,,-99.99,,2013-04-09 00:02:00,
2013-04-08 14:12:00,71.0,66.0,30.06,West,262,3.0,-999.0,83,-99.99,,,-99.99,,2013-04-09 00:12:00,
2013-04-08 14:22:00,71.0,66.0,30.05,WNW,295,1.0,-999.0,85,-99.99,,,-99.99,,2013-04-09 00:22:00,
2013-04-08 14:32:00,72.0,66.0,30.05,West,269,0.0,-999.0,82,-99.99,,,-99.99,,2013-04-09 00:32:00,
2013-04-08 14:42:00,72.0,66.0,30.05,West,269,0.0,-999.0,82,-99.99,,,-99.99,,2013-04-09 00:42:00,
2013-04-08 14:52:00,72.0,66.0,30.04,West,269,0.0,-999.0,82,-99.99,,,-99.99,,2013-04-09 00:52:00,
2013-04-08 15:02:00,72.0,66.0,30.03,SSW,194,1.0,-999.0,81,-99.99,,,-99.99,,2013-04-09 01:02:00,
2013-04-08 15:12:00,72.0,66.0,30.03,SSW,194,1.0,-999.0,81,-99.99,,,-99.99,,2013-04-09 01:12:00,
2013-04-08 15:22:00,72.0,66.0,30.03,WSW,246,2.0,-999.0,81,-99.99,,,-99.99,,2013-04-09 01:22:00,
2013-04-08 15:32:00,72.0,66.0,30.03,WSW,252,1.0,-999.0,82,-99.99,,,-99.99,,2013-04-09 01:32:00,
2013-04-08 15:42:00,72.0,67.0,30.02,West,273,2.0,-999.0,83,-99.99,,,-99.99,,2013-04-09 01:42:00,
2013-04-08 15:52:00,72.0,67.0,30.02,West,273,2.0,-999.0,83,-99.99,,,-99.99,,2013-04-09 01:52:00,
2013-04-08 16:02:00,72.0,67.0,30.02,West,271,1.0,-999.0,84,-99.99,,,-99.99,,2013-04-09 02:02:00,
2013-04-08 16:11:00,72.0,67.0,30.02,West,271,1.0,-999.0,84,-99.99,,,-99.99,,2013-04-09 02:11:00,
2013-04-08 16:22:00,72.0,67.0,30.02,SSW,213,1.0,-999.0,85,-99.99,,,-99.99,,2013-04-09 02:22:00,
2013-04-08 16:32:00,72.0,67.0,30.02,SW,217,1.0,-999.0,85,-99.99,,,-99.99,,2013-04-09 02:32:00,
2013-04-08 16:42:00,71.0,66.0,30.02,WNW,294,1.0,-999.0,85,-99.99,,,-99.99,,2013-04-09 02:42:00,
2013-04-08 16:52:00,71.0,66.0,30.02,WNW,294,1.0,-999.0,85,-99.99,,,-99.99,,2013-04-09 02:52:00,
2013-04-08 17:02:00,71.0,67.0,30.02,WSW,248,2.0,-999.0,86,-99.99,,,-99.99,,2013-04-09 03:02:00,
2013-04-08 17:12:00,71.0,67.0,30.02,WSW,248,2.0,-999.0,86,-99.99,,,-99.99,,2013-04-09 03:12:00,
2013-04-08 17:21:00,71.0,66.0,30.02,West,271,2.0,-999.0,85,-99.99,,,-99.99,,2013-04-09 03:21:00,
2013-04-08 17:32:00,71.0,67.0,30.02,WSW,257,1.0,-999.0,87,-99.99,,,-99.99,,2013-04-09 03:32:00,
2013-04-08 17:42:00,71.0,67.0,30.02,WSW,257,1.0,-999.0,87,-99.99,,,-99.99,,2013-04-09 03:42:00,
2013-04-08 17:52:00,71.0,67.0,30.02,WSW,257,1.0,-999.0,86,-99.99,,,-99.99,,2013-04-09 03:52:00,
2013-04-08 18:02:00,71.0,67.0,30.03,West,260,0.0,-999.0,86,-99.99,,,-99.99,,2013-04-09 04:02:00,
2013-04-08 18:12:00,71.0,67.0,30.03,West,260,0.0,-999.0,86,-99.99,,,-99.99,,2013-04-09 04:12:00,
2013-04-08 18:22:00,71.0,67.0,30.03,WNW,286,0.0,-999.0,86,-99.99,,,-99.99,,2013-04-09 04:22:00,
2013-04-08 18:32:00,71.0,67.0,30.03,WNW,286,0.0,-999.0,86,-99.99,,,-99.99,,2013-04-09 04:32:00,
2013-04-08 18:42:00,71.0,67.0,30.03,WNW,286,0.0,-999.0,86,-99.99,,,-99.99,,2013-04-09 04:42:00,
2013-04-08 18:52:00,71.0,67.0,30.03,WNW,286,0.0,-999.0,86,-99.99,,,-99.99,,2013-04-09 04:52:00,
2013-04-08 19:02:00,70.0,66.0,30.04,West,269,1.0,-999.0,88,-99.99,,,-99.99,,2013-04-09 05:02:00,
2013-04-08 19:12:00,70.0,67.0,30.05,WNW,283,1.0,-999.0,89,-99.99,,,-99.99,,2013-04-09 05:12:00,
2013-04-08 19:22:00,70.0,67.0,30.05,WNW,283,1.0,-999.0,89,-99.99,,,-99.99,,2013-04-09 05:22:00,
2013-04-08 19:32:00,70.0,66.0,30.05,WNW,283,1.0,-999.0,88,-99.99,,,-99.99,,2013-04-09 05:32:00,
2013-04-08 19:42:00,70.0,67.0,30.05,WNW,283,0.0,-999.0,89,-99.99,,,-99.99,,2013-04-09 05:42:00,
2013-04-08 19:52:00,70.0,67.0,30.05,WNW,283,0.0,-999.0,89,-99.99,,,-99.99,,2013-04-09 05:52:00,
2013-04-08 20:02:00,69.0,66.0,30.06,WNW,283,0.0,-999.0,89,-99.99,,,-99.99,,2013-04-09 06:02:00,
2013-04-08 20:12:00,69.0,66.0,30.06,WNW,283,0.0,-999.0,90,-99.99,,,-99.99,,2013-04-09 06:12:00,
2013-04-08 20:22:00,69.0,66.0,30.06,WNW,283,0.0,-999.0,90,-99.99,,,-99.99,,2013-04-09 06:22:00,
2013-04-08 20:32:00,69.0,66.0,30.07,WNW,283,1.0,-999.0,90,-99.99,,,-99.99,,2013-04-09 06:32:00,
2013-04-08 20:42:00,69.0,66.0,30.07,WNW,283,1.0,-999.0,90,-99.99,,,-99.99,,2013-04-09 06:42:00,
2013-04-08 20:52:00,69.0,66.0,30.08,WNW,283,0.0,-999.0,90,-99.99,,,-99.99,,2013-04-09 06:52:00,
2013-04-08 21:02:00,69.0,66.0,30.08,WNW,283,0.0,-999.0,91,-99.99,,,-99.99,,2013-04-09 07:02:00,
2013-04-08 21:12:00,69.0,66.0,30.08,WNW,283,0.0,-999.0,91,-99.99,,,-99.99,,2013-04-09 07:12:00,
2013-04-08 21:22:00,69.0,67.0,30.09,WNW,283,0.0,-999.0,92,-99.99,,,-99.99,,2013-04-09 07:22:00,
2013-04-08 21:32:00,69.0,67.0,30.09,WNW,283,0.0,-999.0,92,-99.99,,,-99.99,,2013-04-09 07:32:00,
2013-04-08 21:42:00,69.0,67.0,30.09,WNW,283,0.0,-999.0,92,-99.99,,,-99.99,,2013-04-09 07:42:00,
2013-04-08 21:52:00,68.0,66.0,30.10,WNW,283,0.0,-999.0,93,-99.99,,,-99.99,,2013-04-09 07:52:00,
2013-04-08 22:02:00,68.0,66.0,30.10,WNW,283,0.0,-999.0,93,-99.99,,,-99.99,,2013-04-09 08:02:00,
2013-04-08 22:12:00,68.0,66.0,30.10,WNW,283,0.0,-999.0,93,-99.99,,,-99.99,,2013-04-09 08:12:00,
2013-04-08 22:22:00,68.0,66.0,30.11,WNW,283,0.0,-999.0,92,-99.99,,,-99.99,,2013-04-09 08:22:00,
2013-04-08 22:32:00,68.0,66.0,30.11,WNW,283,0.0,-999.0,92,-99.99,,,-99.99,,2013-04-09 08:32:00,
2013-04-08 22:42:00,68.0,66.0,30.11,WNW,283,0.0,-999.0,92,-99.99,,,-99.99,,2013-04-09 08:42:00,
2013-04-08 22:52:00,68.0,66.0,30.11,WNW,283,0.0,-999.0,93,-99.99,,,-99.99,,2013-04-09 08:52:00,
2013-04-08 23:02:00,67.0,65.0,30.11,WNW,283,0.0,-999.0,93,-99.99,,,-99.99,,2013-04-09 09:02:00,
2013-04-08 23:12:00,67.0,65.0,30.11,WNW,283,0.0,-999.0,93,-99.99,,,-99.99,,2013-04-09 09:12:00,
2013-04-08 23:22:00,67.0,65.0,30.11,WNW,283,0.0,-999.0,94,-99.99,,,-99.99,,2013-04-09 09:22:00,
2013-04-08 23:32:00,66.0,64.0,30.10,WNW,284,0.0,-999.0,94,-99.99,,,-99.99,,2013-04-09 09:32:00,
2013-04-08 23:43:00,66.0,64.0,30.10,WNW,284,0.0,-999.0,94,-99.99,,,-99.99,,2013-04-09 09:43:00,
2013-04-08 23:52:00,66.0,64.0,30.10,ENE,71,0.0,-999.0,94,-99.99,,,-99.99,,2013-04-09 09:52:00,